EW4543 Weather Reports


Display with metric or nautical units.
time (UTC)temp
F
wind
direction
speed
MPH
gust
MPH
rain 1hr
in
rain 24hr
in
rain mn
in
humidity
%
barometer
mb
20260506001522 52 260 0.0 1.0 0.01 0.27 0.06 96 1012.3
20260506000023 52 260 0.0 1.0 0.00 0.26 0.05 96 1012.2
20260505234522 52 260 0.0 1.0 0.00 0.26 0.05 96 1012.2
20260505233021 52 260 0.0 1.0 0.00 0.26 0.05 96 1012.2
20260505231528 52 260 0.0 1.0 0.00 0.26 0.05 96 1012.2
20260505230027 52 260 0.0 1.0 0.00 0.26 0.05 96 1012.3
20260505224520 53 262 0.0 1.0 0.00 0.26 0.05 96 1012.2
20260505223021 53 274 0.0 1.0 0.00 0.26 0.05 96 1012.2
20260505221519 53 238 0.0 1.0 0.00 0.26 0.05 96 1012.4
20260505220017 52 279 0.0 2.0 0.00 0.26 0.05 95 1012.3
20260505214517 53 333 0.0 1.0 0.00 0.26 0.05 96 1012.4
20260505213016 53 311 0.0 2.0 0.00 0.26 0.05 95 1012.4
20260505211515 52 118 0.0 2.0 0.00 0.26 0.05 95 1012.4
20260505210023 52 308 0.0 1.0 0.00 0.26 0.05 95 1012.4
20260505203028 53 203 0.0 0.0 0.00 0.26 0.05 96 1012.2
20260505201619 52 208 0.0 0.0 0.00 0.26 0.05 95 1012.2
20260505200043 52 307 0.0 0.0 0.00 0.26 0.05 95 1012.2
20260505194631 52 167 0.0 0.0 0.00 0.26 0.05 96 1012.4
20260505193054 52 145 0.0 0.0 0.00 0.26 0.05 96 1012.3
20260505191553 52 203 0.0 0.0 0.00 0.26 0.05 96 1012.3
20260505190052 52 212 0.0 1.0 0.00 0.26 0.05 96 1012.2
20260505184551 52 200 0.0 0.0 0.00 0.26 0.05 95 1012.2
20260505183050 51 190 0.0 0.0 0.00 0.26 0.05 95 1012.2
20260505181555 51 167 0.0 0.0 0.00 0.26 0.05 95 1012.1
20260505180049 52 217 0.0 0.0 0.00 0.26 0.05 95 1011.9
20260505174554 52 233 0.0 1.0 0.00 0.26 0.05 95 1011.9
20260505173047 52 11 0.0 1.0 0.00 0.26 0.05 95 1011.7
20260505171551 52 269 0.0 1.0 0.00 0.26 0.05 95 1011.5
20260505170045 51 148 0.0 2.0 0.00 0.26 0.05 95 1011.8
20260505164603 51 181 0.0 2.0 0.00 0.26 0.05 95 1011.7
20260505163052 51 227 0.0 1.0 0.00 0.26 0.05 95 1011.6
20260505161544 52 198 0.0 2.0 0.00 0.26 0.05 96 1011.6
20260505153137 49 299 0.0 1.0 0.00 0.26 0.05 96 1011.4
20260505151532 49 337 0.0 1.0 0.00 0.26 0.05 96 1011.3
20260505130107 47 337 0.0 0.0 0.00 0.26 0.05 96 1010.8
20260505124553 47 337 0.0 0.0 0.00 0.26 0.05 96 1010.8
20260505123047 47 337 0.0 0.0 0.00 0.26 0.05 96 1010.8
20260505121545 47 337 0.0 0.0 0.00 0.26 0.05 96 1010.5
20260505120040 47 337 0.0 0.0 0.00 0.26 0.05 96 1010.6
20260505114540 47 337 0.0 0.0 0.00 0.26 0.05 96 1010.7
20260505113049 47 337 0.0 0.0 0.00 0.26 0.05 96 1010.7
20260505111541 47 337 0.0 0.0 0.00 0.26 0.05 96 1010.9
20260505101534 47 337 0.0 0.0 0.00 0.26 0.05 96 1010.9
20260505100034 47 337 0.0 0.0 0.02 0.26 0.05 96 1011.1
20260505094534 47 337 0.0 0.0 0.02 0.26 0.05 96 1011.1
20260505093031 47 337 0.0 0.0 0.04 0.26 0.05 96 1011.3
20260505091529 47 337 0.0 0.0 0.04 0.26 0.05 96 1011.5
20260505090030 47 337 0.0 1.0 0.02 0.24 0.03 96 1011.4
20260505084527 47 337 0.0 0.0 0.02 0.24 0.03 96 1011.4
20260505083024 47 337 0.0 0.0 0.00 0.22 0.01 96 1011.5
20260505081534 47 337 0.0 0.0 0.00 0.22 0.01 96 1012.1
20260505080024 47 337 0.0 0.0 0.00 0.22 0.01 96 1011.9
20260505074520 47 337 0.0 0.0 0.02 0.22 0.01 95 1011.8
20260505073023 47 337 0.0 0.0 0.02 0.22 0.01 95 1011.6
20260505071539 47 337 0.0 0.0 0.02 0.22 0.01 95 1011.5
20260505070015 47 337 0.0 0.0 0.02 0.21 0.00 95 1011.7
20260505064521 47 337 0.0 0.0 0.01 0.20 0.20 95 1011.8
20260505063015 47 337 0.0 3.0 0.01 0.20 0.20 95 1011.8
20260505061513 47 279 0.0 1.0 0.03 0.20 0.20 95 1011.4
20260505060011 47 353 0.0 0.0 0.03 0.19 0.19 95 1011.5
20260505054510 47 353 0.0 0.0 0.03 0.19 0.19 95 1011.4
20260505053009 47 353 0.0 0.0 0.04 0.19 0.19 95 1011.3
20260505051509 47 353 0.0 0.0 0.02 0.17 0.17 95 1011.8
20260505041504 47 353 0.0 0.0 0.09 0.15 0.15 95 1011.9
20260505040017 47 353 0.0 1.0 0.11 0.14 0.14 95 1012.0
20260505034610 47 321 0.0 0.0 0.11 0.11 0.11 95 1012.0
20260505033101 47 320 0.0 0.0 0.08 0.08 0.08 95 1011.7
20260505031600 48 320 0.0 0.0 0.06 0.06 0.06 95 1011.6
20260505030104 48 319 0.0 0.0 0.03 0.03 0.03 95 1011.4
20260505024557 48 319 0.0 0.0 0.00 0.00 0.00 95 1011.5
20260505023107 48 319 0.0 0.0 0.00 0.00 0.00 95 1011.3
20260505021600 48 319 0.0 0.0 0.00 0.00 0.00 95 1011.2
20260505020058 48 319 0.0 0.0 0.00 0.00 0.00 95 1011.3
20260505014555 48 320 0.0 0.0 0.00 0.00 0.00 94 1011.5
20260505013054 48 319 0.0 0.0 0.00 0.00 0.00 94 1011.3
20260505011556 48 320 0.0 0.0 0.00 0.00 0.00 94 1011.5
20260505004553 48 319 0.0 0.0 0.00 0.00 0.00 94 1011.3
20260505003051 49 320 0.0 0.0 0.00 0.00 0.00 94 1011.6
20260505003003 49 320 0.0 0.0 0.00 0.00 0.00 94 1011.6